TimeAKDT,TemperatureF,Dew PointF,Humidity,Sea Level PressureIn,VisibilityMPH,Wind Direction,Wind SpeedMPH,Gust SpeedMPH,PrecipitationIn,Events,Conditions,WindDirDegrees,DateUTC
12:16 AM,55.4,48.2,77,29.97,10.0,ENE,4.6,-,N/A,,Partly Cloudy,60,2013-07-21 08:16:00
12:36 AM,55.4,50.0,82,29.97,10.0,Calm,Calm,-,N/A,,Clear,0,2013-07-21 08:36:00
12:56 AM,55.4,48.2,77,29.97,10.0,ESE,6.9,-,N/A,,Clear,110,2013-07-21 08:56:00
1:16 AM,57.2,48.2,72,29.97,10.0,ESE,3.5,-,N/A,,Clear,110,2013-07-21 09:16:00
1:36 AM,53.6,48.2,82,29.97,10.0,Calm,Calm,-,N/A,,Clear,0,2013-07-21 09:36:00
1:56 AM,53.6,46.4,77,29.97,10.0,Calm,Calm,-,N/A,,Clear,0,2013-07-21 09:56:00
2:16 AM,53.6,46.4,77,29.97,10.0,ESE,4.6,-,N/A,,Clear,120,2013-07-21 10:16:00
2:36 AM,55.4,46.4,72,29.97,10.0,NNE,4.6,-,N/A,,Clear,20,2013-07-21 10:36:00
2:56 AM,55.4,44.6,67,29.97,10.0,NE,3.5,-,N/A,,Clear,40,2013-07-21 10:56:00
3:16 AM,53.6,44.6,72,29.96,10.0,Calm,Calm,-,N/A,,Clear,0,2013-07-21 11:16:00
3:36 AM,55.4,44.6,67,29.96,10.0,NE,4.6,-,N/A,,Clear,40,2013-07-21 11:36:00
3:56 AM,57.2,46.4,67,29.96,10.0,West,8.1,18.4,N/A,,Clear,270,2013-07-21 11:56:00
4:16 AM,51.8,44.6,76,29.96,10.0,NW,4.6,-,N/A,,Clear,310,2013-07-21 12:16:00
4:36 AM,55.4,46.4,72,29.96,10.0,Calm,Calm,-,N/A,,Clear,0,2013-07-21 12:36:00
4:56 AM,53.6,44.6,72,29.96,10.0,Calm,Calm,-,N/A,,Clear,0,2013-07-21 12:56:00
5:16 AM,53.6,46.4,77,29.96,10.0,North,5.8,-,N/A,,Clear,10,2013-07-21 13:16:00
5:36 AM,53.6,44.6,72,29.96,10.0,WSW,3.5,-,N/A,,Clear,240,2013-07-21 13:36:00
5:56 AM,53.6,44.6,72,29.96,10.0,Calm,Calm,-,N/A,,Partly Cloudy,0,2013-07-21 13:56:00
6:16 AM,53.6,44.6,72,29.95,10.0,NNW,5.8,-,N/A,,Partly Cloudy,340,2013-07-21 14:16:00
6:36 AM,57.2,44.6,63,29.95,10.0,NW,8.1,-,N/A,,Partly Cloudy,310,2013-07-21 14:36:00
6:56 AM,62.6,44.6,52,29.95,10.0,Calm,Calm,-,N/A,,Partly Cloudy,0,2013-07-21 14:56:00
7:16 AM,57.2,44.6,63,29.94,10.0,West,8.1,18.4,N/A,,Partly Cloudy,270,2013-07-21 15:16:00
7:36 AM,60.8,44.6,55,29.94,10.0,West,4.6,-,N/A,,Partly Cloudy,270,2013-07-21 15:36:00
7:56 AM,57.2,46.4,67,29.94,10.0,WNW,3.5,-,N/A,,Partly Cloudy,300,2013-07-21 15:56:00
8:16 AM,62.6,44.6,52,29.93,10.0,North,3.5,-,N/A,,Partly Cloudy,10,2013-07-21 16:16:00
8:36 AM,62.6,46.4,55,29.93,10.0,NW,5.8,-,N/A,,Partly Cloudy,320,2013-07-21 16:36:00
8:56 AM,68.0,44.6,43,29.93,10.0,North,10.4,18.4,N/A,,Partly Cloudy,10,2013-07-21 16:56:00
9:16 AM,69.8,44.6,40,29.92,10.0,NE,12.7,24.2,N/A,,Partly Cloudy,50,2013-07-21 17:16:00
9:36 AM,69.8,42.8,38,29.92,10.0,East,11.5,25.3,N/A,,Partly Cloudy,80,2013-07-21 17:36:00
9:56 AM,69.8,42.8,38,29.92,10.0,East,18.4,31.1,N/A,,Partly Cloudy,100,2013-07-21 17:56:00
10:16 AM,69.8,42.8,38,29.92,10.0,East,5.8,32.2,N/A,,Partly Cloudy,100,2013-07-21 18:16:00
10:36 AM,69.8,42.8,38,29.92,10.0,East,12.7,29.9,N/A,,Partly Cloudy,80,2013-07-21 18:36:00
10:56 AM,71.6,42.8,35,29.91,10.0,East,20.7,36.8,N/A,,Partly Cloudy,90,2013-07-21 18:56:00
11:16 AM,71.6,42.8,35,29.92,10.0,ESE,11.5,32.2,N/A,,Partly Cloudy,120,2013-07-21 19:16:00
11:36 AM,71.6,42.8,35,29.91,10.0,East,10.4,28.8,N/A,,Partly Cloudy,80,2013-07-21 19:36:00
11:56 AM,71.6,42.8,35,29.91,10.0,East,13.8,29.9,N/A,,Partly Cloudy,100,2013-07-21 19:56:00
12:16 PM,71.6,42.8,35,29.91,10.0,South,9.2,29.9,N/A,,Partly Cloudy,190,2013-07-21 20:16:00
12:36 PM,73.4,42.8,33,29.90,10.0,East,19.6,25.3,N/A,,Partly Cloudy,90,2013-07-21 20:36:00
12:56 PM,73.4,41.0,31,29.91,10.0,East,15.0,38.0,N/A,,Partly Cloudy,90,2013-07-21 20:56:00
1:16 PM,73.4,42.8,33,29.90,10.0,East,23.0,31.1,N/A,,Partly Cloudy,80,2013-07-21 21:16:00
1:36 PM,73.4,41.0,31,29.90,10.0,ESE,10.4,32.2,N/A,,Partly Cloudy,110,2013-07-21 21:36:00
1:56 PM,75.2,42.8,31,29.89,10.0,East,17.3,27.6,N/A,,Partly Cloudy,90,2013-07-21 21:56:00
2:16 PM,75.2,41.0,29,29.89,10.0,East,23.0,34.5,N/A,,Partly Cloudy,90,2013-07-21 22:16:00
2:36 PM,75.2,41.0,29,29.89,10.0,East,17.3,32.2,N/A,,Partly Cloudy,90,2013-07-21 22:36:00
2:56 PM,75.2,41.0,29,29.88,10.0,East,21.9,36.8,N/A,,Partly Cloudy,100,2013-07-21 22:56:00
3:16 PM,75.2,42.8,31,29.88,10.0,East,16.1,28.8,N/A,,Partly Cloudy,90,2013-07-21 23:16:00
3:36 PM,75.2,41.0,29,29.89,10.0,East,18.4,28.8,N/A,,Partly Cloudy,80,2013-07-21 23:36:00
3:56 PM,75.2,42.8,31,29.88,10.0,East,20.7,27.6,N/A,,Partly Cloudy,100,2013-07-21 23:56:00
4:16 PM,75.2,42.8,31,29.88,10.0,East,15.0,31.1,N/A,,Partly Cloudy,90,2013-07-22 00:16:00
4:36 PM,75.2,41.0,29,29.88,10.0,NE,3.5,24.2,N/A,,Partly Cloudy,40,2013-07-22 00:36:00
4:56 PM,75.2,42.8,31,29.88,10.0,ENE,21.9,32.2,N/A,,Partly Cloudy,70,2013-07-22 00:56:00
5:16 PM,77.0,42.8,29,29.88,10.0,East,10.4,20.7,N/A,,Partly Cloudy,80,2013-07-22 01:16:00
5:36 PM,77.0,42.8,29,29.88,10.0,ENE,6.9,-,N/A,,Partly Cloudy,70,2013-07-22 01:36:00
5:56 PM,75.2,42.8,31,29.88,10.0,NE,5.8,18.4,N/A,,Mostly Cloudy,40,2013-07-22 01:56:00
6:16 PM,75.2,42.8,31,29.88,10.0,ENE,5.8,18.4,N/A,,Mostly Cloudy,70,2013-07-22 02:16:00
6:36 PM,77.0,44.6,32,29.88,10.0,NE,6.9,16.1,N/A,,Mostly Cloudy,40,2013-07-22 02:36:00
6:56 PM,75.2,42.8,31,29.88,10.0,NE,5.8,-,N/A,,Mostly Cloudy,50,2013-07-22 02:56:00
7:16 PM,73.4,42.8,33,29.88,10.0,Calm,Calm,-,N/A,,Mostly Cloudy,0,2013-07-22 03:16:00
7:36 PM,73.4,42.8,33,29.89,10.0,Calm,Calm,-,N/A,,Mostly Cloudy,0,2013-07-22 03:36:00
7:56 PM,73.4,42.8,33,29.89,10.0,Calm,Calm,-,N/A,,Mostly Cloudy,0,2013-07-22 03:56:00
8:16 PM,75.2,44.6,34,29.89,10.0,South,4.6,-,N/A,,Mostly Cloudy,180,2013-07-22 04:16:00
8:36 PM,75.2,42.8,31,29.89,10.0,Calm,Calm,-,N/A,,Mostly Cloudy,0,2013-07-22 04:36:00
8:56 PM,73.4,44.6,36,29.89,10.0,Calm,Calm,-,N/A,,Mostly Cloudy,0,2013-07-22 04:56:00
9:16 PM,73.4,41.0,31,29.89,10.0,NNE,4.6,-,N/A,,Mostly Cloudy,20,2013-07-22 05:16:00
9:36 PM,69.8,44.6,40,29.89,10.0,SSW,3.5,-,N/A,,Mostly Cloudy,200,2013-07-22 05:36:00
9:56 PM,69.8,44.6,40,29.90,10.0,SW,4.6,-,N/A,,Mostly Cloudy,230,2013-07-22 05:56:00
10:16 PM,69.8,44.6,40,29.91,10.0,Calm,Calm,-,N/A,,Partly Cloudy,0,2013-07-22 06:16:00
10:36 PM,69.8,44.6,40,29.91,10.0,Calm,Calm,-,N/A,,Clear,0,2013-07-22 06:36:00
10:56 PM,71.6,44.6,38,29.92,10.0,NNE,4.6,-,N/A,,Clear,30,2013-07-22 06:56:00
11:16 PM,71.6,44.6,38,29.93,10.0,East,10.4,17.3,N/A,,Clear,90,2013-07-22 07:16:00
11:36 PM,71.6,42.8,35,29.93,10.0,ESE,8.1,-,N/A,,Mostly Cloudy,110,2013-07-22 07:36:00
11:56 PM,69.8,42.8,38,29.94,10.0,NNE,4.6,-,N/A,,Overcast,20,2013-07-22 07:56:00